Location: Ebersheim
(48.3033°N, 7.4991°E)
Time: 18:11:27
(UTC+00:00)

STARLINK-54 - Pass Details

Date: 27 February 2020
Orbit: 529 x 530 km, 53.0° (Epoch: 01 April)

Event Time Altitude Azimuth Distance (km) Brightness Sun altitude
Rises 18:46:19 0° 285° (WNW) 2,669 8.8 -16.8°
Reaches altitude 10° 18:48:37 10° 292° (WNW) 1,779 7.4 -17.1°
Maximum altitude 18:52:28 42° 5° (N) 762 4.3 -17.8°
Enters shadow 18:53:46 32° 51° (NE) 937 4.4 -18.0°
